SCP
0 0 0 0 0 0 0 0 0 0 0 0 0 0 0 0 0 0 0 0 0 0 0 0 0 0 0 0 0 0 0 0 0 0 0 0 0 0 0 0 0 0 0 0
0 0 0 0 0 0 0 0 0 0 0 0 0 0 0 0 0 0 0 0 0 0 0 0 0 0 0 0 0 0 0 0 0 0 0 0 0 0 0 0 0 0 0 0
0 0 0 0 0 0 0 0 0 0 0 0 0 0 0 0 0 0 0 0 0 0 0 0 0 0 0 0 0 0 0 0 0 0 0 0 0 0 0 0 0 0 0 0
0 0 0 0 0 0 0 0 0 0 0 0 0 0 0 0 0 0 0 0 0 0 0 0 0 0 0 0 0 0 0 0 0 0 0 0 0 0 0 0 0 0 0 0
0 0 0 0 0 0 0 0 0 0 0 0 0 0 0 0 0 0 0 0 0 0 0 0 0 0 0 0 0 0 0 0 0 0 0 0 0 0 0 0 0 0 0 0
0 0 0 0 0 0 0 0 0 0 0 0 0 0 0 0 0 0 0 0 0 0 0 0 0 0 0 0 0 0 0 0 0 0 0 0 0 0 0 0 0 0 0 0
0 0 0 0 0 0 0 0 0 0 0 0 0 0 0 0 0 0 0 0 0 0 0 0 0 0 0 0 0 0 0 0 0 0 0 0 0 0 0 0 0 0 0 0
0 0 0 0 0 0 0 0 0 0 0 0 0 0 0 0 0 0 0 0 0 0 0 0 0 0 0 0 0 0 0 0 0 0 0 0 0 0 0 0 0 0 0 0
0 0 0 0 0 0 0 0 0 0 0 0 0 0 0 0 0 0 0 0 0 0 0 0 0 0 0 0 0 0 0 0 0 0 0 0 0 0 0 0 0 0 0 0
0 0 0 0 0 0 0 0 0 0 0 0 0 0 0 0 0 0 0 0 0 0 0 0 0 0 0 0 0 0 0 0 0 0 0 0 0 0 0 0 0 0 0 0
0 0 0 0 0 0 0 0 0 0 0 0 0 0 0 0 0 0 0 0 0 0 0 0 0 0 0 0 0 0 0 0 0 0 0 0 0 0 0 0 0 0 0 0
0 0 0 0 0 0 0 0 0 0 0 0 0 0 0 0 0 0 0 0 0 0 0 0 0 0 0 0 0 0 0 0 0 0 0 0 0 0 0 0 0 0 0 0
0 0 0 0 0 0 0 0 0 0 0 0 0 0 0 0 0 0 0 0 0 0 0 0 0 0 0 0 0 0 0 0 0 0 0 0 0 0 0 0 0 0 0 0
0 0 0 0 0 0 0 0 0 0 0 0 0 0 0 0 0 0 0 0 0 0 0 0 0 0 0 0 0 0 0 0 0 0 0 0 0 0 0 0 0 0 0 0
0 0 0 0 0 0 0 0 0 0 0 0 0 0 0 0 0 0 0 0 0 0 0 0 0 0 0 0 0 0 0 0 0 0 0 0 0 0 0 0 0 0 0 0
0 0 0 0 0 0 0 0 0 0 0 0 0 0 0 0 0 0 0 0 0 0 0 0 0 0 0 0 0 0 0 0 0 0 0 0 0 0 0 0 0 0 0 0
0 0 0 0 0 0 0 0 0 0 0 0 0 0 0 0 0 0 0 0 0 0 0 0 0 0 0 0 0 0 0 0 0 0 0 0 0 0 0 0 0 0 0 0
0 0 0 0 0 0 0 0 0 0 0 0 0 0 0 0 0 0 0 0 0 0 0 0 0 0 0 0 0 0 0 0 0 0 0 0 0 0 0 0 0 0 0 0
0 0 0 0 0 0 0 0 0 0 0 0 0 0 0 0 0 0 0 0 0 0 0 0 0 0 0 0 0 0 0 0 0 0 0 0 0 0 0 0 0 0 0 0
0 0 0 0 0 -0 0 0 0 0 0 0 0 0 0 0 0 0 0 0 0 0 0 0 0 0 0 0 0 0 -0 -0 -0 -0 -0 -0 -0 -0 -0 -0 -0 -0 -0 -0
0 0 0 0 0 0 0 0 0 0 0 0 0 0 0 0 0 0 0 0 0 0 0 0 0 0 0 0 0 0 0 0 -0 0 -0 -0 -0 -0 -0 -0 -0 -0 -0 -0
0 0 0 0 0 0 0 0 0 0 0 0 0 0 0 0 0 0 0 0 0 0 0 0 0 0 0 0 0 0 0 0 0 0 0 0 0 -0 -0 -0 -0 -0 -0 -0
0 0 0 0 0 0 0 0 -0 0 0 0 0 0 0 0 0 0 0 0 0 0 0 0 0 0 0 0 0 0 0 0 0 0 0 0 0 0 0 0 0 -0 -0 -0
0 0 0 0 0 0 0 0 -0 -0 0 0 0 0 0 0 0 0 0 0 0 0 0 0 0 0 0 0 0 0 0 0 0 0 0 0 0 0 0 0 0 0 0 0
0 0 0 0 0 0 0 0 -0 0 0 0 0 0 0 0 0 0 0 0 0 0 0 0 0 0 0 0 0 0 0 0 0 0 0 0 0 0 0 0 0 0 0 0
0 0 0 0 0 0 0 0 0 0 0 0 0 0 -0 -0 -0 0 0 0 0 0 0 0 0 0 0 0 0 0 0 0 0 0 0 0 0 0 0 0 0 0 0 0
0 0 0 0 0 0 0 0 0 0 0 -0 0 -0 0 0 -0 -0 0 0 0 0 0 0 0 0 0 0 0 0 0 0 0 0 0 0 0 0 0 0 0 0 0 0
Wind_Speed_500mb
61 45 44 43 34 28 19 15 2 18 28 4 3 6 12 11 11 9 4 7 6 14 11 9 7 10 2 6 10 9 5 6 6 12 2 4 5 4 3 7 10 5 5 13
69 58 50 49 41 37 28 12 10 20 34 6 5 7 4 12 9 9 11 11 5 5 11 0 7 4 1 5 6 9 8 3 5 16 9 5 5 3 7 7 3 9 7 13
75 68 60 52 46 42 39 16 2 10 25 9 10 8 7 6 10 5 6 7 9 7 3 6 5 6 3 1 3 7 5 4 12 11 6 3 6 4 6 7 5 3 12 11
81 76 66 59 56 52 45 18 9 15 6 9 8 8 9 10 10 7 11 1 10 11 7 4 7 4 2 3 4 5 8 7 6 7 12 7 13 10 12 12 10 11 19 16
89 82 73 67 60 54 55 20 14 13 8 9 13 12 10 17 7 13 8 8 12 11 13 14 14 12 6 10 6 5 3 4 4 8 11 15 30 11 19 26 15 20 31 47
95 87 76 71 68 71 31 41 19 10 10 9 10 10 12 15 19 11 7 12 9 8 13 18 4 18 8 7 13 10 8 9 6 10 10 11 20 18 32 9 11 15 16 36
101 94 80 74 79 75 46 45 26 12 6 5 9 9 7 13 12 12 9 15 11 6 12 19 9 5 5 7 20 19 10 10 5 6 6 6 10 6 6 18 21 21 13 17
107 99 89 81 80 71 69 35 30 15 3 7 5 15 9 16 16 6 11 9 8 26 11 7 10 8 11 8 3 9 8 8 2 6 8 16 27 12 14 14 28 15 23 24
117 105 93 89 79 69 63 53 33 13 19 13 13 12 13 8 6 7 7 16 25 16 8 6 7 8 6 9 14 7 12 12 12 5 9 16 4 6 12 8 24 24 37 27
116 106 94 87 77 70 60 59 51 23 8 16 28 8 13 18 11 6 4 17 12 17 4 5 7 9 4 6 10 7 8 3 29 25 21 17 16 14 19 9 12 8 6 19
119 106 90 87 78 72 58 52 48 36 10 29 22 19 23 20 19 9 18 10 2 5 5 7 7 7 11 2 7 12 15 14 8 5 3 26 16 4 16 17 12 22 41 46
122 106 91 90 83 72 60 51 49 44 13 13 24 26 16 18 12 30 37 7 16 20 6 1 6 4 0 6 7 5 5 15 10 18 17 11 13 31 24 35 57 54 55 49
117 104 93 89 82 68 63 56 54 42 18 10 16 16 24 24 21 19 14 17 18 19 16 18 5 9 8 7 12 4 9 12 7 6 23 27 52 63 51 47 54 46 35 35
115 98 93 84 79 71 55 51 50 37 18 9 7 15 20 26 27 27 38 37 26 26 19 10 5 5 22 8 10 12 12 15 9 21 36 39 54 53 31 25 29 35 38 38
105 99 94 84 77 61 53 37 39 35 10 12 14 15 11 15 19 25 25 29 33 18 8 5 6 9 6 6 1 18 14 15 14 24 36 20 33 24 33 32 33 35 41 49
110 103 87 84 75 59 57 16 30 33 24 7 2 3 7 9 12 13 14 22 19 19 13 12 14 24 15 5 6 13 13 15 15 13 33 34 39 22 18 23 28 34 38 43
104 97 92 82 69 63 23 15 21 49 24 7 5 5 3 1 3 5 7 14 8 12 7 7 11 17 17 4 16 22 21 25 12 19 39 14 22 25 47 40 41 45 47 48
106 101 88 80 71 51 35 31 39 42 16 7 6 6 4 5 2 3 1 2 3 7 7 6 6 8 5 4 9 22 28 33 11 36 45 41 51 40 45 49 51 58 58 58
113 107 91 79 47 25 30 42 37 32 8 11 5 7 5 0 3 2 4 2 1 4 1 5 5 5 6 5 9 27 34 26 40 61 63 55 44 56 57 61 64 66 70 69
116 98 52 17 25 42 43 17 11 7 2 5 5 11 1 2 4 4 3 2 1 1 6 12 5 5 10 6 12 29 38 36 50 58 50 52 62 65 72 72 70 68 71 73
96 23 16 79 60 20 8 8 8 1 7 5 7 14 4 3 4 5 2 4 1 5 7 4 4 6 7 12 22 49 49 52 47 43 51 58 62 67 68 69 65 64 63 64
49 55 68 54 12 10 11 1 3 4 8 10 11 9 6 5 5 4 5 4 5 6 4 5 6 4 7 15 56 58 50 50 49 46 53 52 51 52 55 57 57 54 52 51
95 37 15 9 5 12 10 9 6 4 14 20 15 2 9 7 5 9 6 6 7 5 4 6 6 3 12 57 55 52 47 43 44 46 42 43 44 40 38 43 41 43 43 40
16 12 10 6 3 3 8 9 10 11 11 34 24 13 6 5 6 3 7 6 5 5 2 9 1 17 51 51 48 51 53 50 49 47 45 43 42 40 33 32 35 37 37 35
13 10 6 4 8 13 19 28 25 21 34 29 17 12 4 5 7 3 6 9 6 10 7 2 19 46 46 47 48 48 47 47 47 46 44 43 41 39 36 32 31 29 29 30
12 15 13 10 12 7 12 18 27 31 29 19 7 6 7 2 7 6 9 10 10 5 4 29 38 42 40 42 44 42 41 41 40 39 37 36 36 34 32 29 28 28 29 31
12 13 23 14 29 20 13 18 17 29 17 4 7 8 11 5 6 3 7 8 5 10 31 28 30 32 36 39 38 37 36 35 33 33 32 31 30 27 26 28 29 28 27 28
Wind_Direction_500mb
228 223 209 216 222 223 209 178 120 179 169 154 10 170 185 175 171 180 162 135 130 183 169 185 238 230 249 181 169 174 193 169 238 237 277 283 285 288 174 171 237 224 156 259
224 216 212 215 219 213 190 187 160 175 182 164 254 289 233 200 153 195 178 186 169 132 172 203 214 244 52 182 164 168 201 274 2 336 355 10 236 125 90 108 87 220 160 266
219 216 210 217 212 205 188 174 118 169 198 227 149 141 229 218 211 157 150 130 108 101 91 37 236 232 182 54 177 130 121 117 169 194 183 135 280 154 128 120 126 180 231 292
215 215 215 215 205 206 192 199 224 177 208 241 166 161 147 151 174 196 177 134 202 160 163 354 231 299 313 307 327 117 115 200 162 253 251 249 239 212 209 186 188 191 272 262
212 214 213 216 203 201 195 183 169 173 149 152 122 177 224 174 183 149 207 178 188 162 167 186 204 150 202 212 11 113 9 253 106 305 278 259 272 233 223 227 218 253 260 266
210 211 211 214 210 199 188 204 187 177 149 128 113 209 195 195 149 209 157 180 116 185 222 194 169 186 181 189 160 169 143 135 85 272 332 346 304 223 221 189 193 182 206 249
213 211 205 210 207 208 199 197 181 166 247 144 196 168 140 171 190 147 157 159 136 157 150 123 109 136 309 248 237 172 140 123 118 234 13 297 250 154 191 197 234 224 282 271
210 208 206 204 205 212 208 197 191 178 170 176 150 160 131 126 151 88 148 158 156 149 108 60 14 342 7 281 314 251 178 150 168 171 201 294 289 218 163 174 256 214 232 254
206 205 203 200 201 207 205 202 192 176 132 230 152 143 163 144 134 13 137 150 151 160 83 84 173 227 194 295 326 333 211 220 198 129 189 227 167 170 196 110 274 208 229 255
203 202 200 198 199 205 200 207 207 193 170 159 163 161 173 150 120 131 156 156 159 176 118 129 169 238 188 248 186 211 134 206 217 227 235 266 247 214 132 125 243 161 216 276
198 199 197 194 193 200 195 201 200 194 179 175 180 176 158 146 169 147 153 99 184 63 139 147 209 173 215 150 200 181 170 169 199 92 238 264 216 33 191 219 245 261 295 296
195 190 190 191 189 197 194 190 190 192 182 173 191 207 203 217 232 187 170 186 162 178 97 274 93 209 69 179 249 167 278 193 189 181 213 235 226 223 233 282 291 293 299 296
187 183 183 184 191 192 194 189 182 178 159 150 181 199 211 210 205 208 186 224 217 195 203 164 183 223 137 179 242 199 268 180 215 94 246 240 262 275 286 292 293 295 286 284
180 177 176 179 185 185 183 185 179 169 149 124 186 185 184 204 219 232 237 244 237 233 219 201 156 168 193 219 246 217 227 153 212 256 269 282 274 275 281 290 292 292 291 294
171 171 171 170 176 174 174 176 179 183 153 162 162 161 187 225 245 247 244 239 230 221 203 193 230 214 175 218 39 260 215 260 245 259 287 293 282 309 294 295 295 293 295 293
169 166 158 162 170 168 159 135 188 192 200 154 88 159 202 218 260 257 248 237 234 211 217 223 236 235 205 206 223 52 15 351 341 318 320 309 301 286 290 321 310 301 302 303
162 153 159 164 158 160 150 141 169 190 177 117 50 359 93 126 237 223 231 225 207 231 249 254 267 256 234 250 263 26 6 345 328 347 343 335 330 310 303 307 306 304 302 300
150 153 155 157 158 141 117 120 146 169 131 139 109 272 46 29 224 179 89 131 197 232 272 277 261 296 252 248 42 14 360 349 278 322 328 311 308 302 299 303 306 308 307 308
149 147 153 142 141 127 133 138 141 149 138 132 104 121 243 319 35 47 106 81 350 303 33 279 5 321 224 178 45 1 352 324 313 315 314 314 305 304 304 308 311 312 310 311
151 142 129 93 122 135 128 114 150 135 143 96 110 150 257 352 21 46 76 32 185 3 265 311 59 257 173 200 317 333 337 319 317 317 318 316 310 310 308 308 307 307 306 307
136 122 93 128 132 120 99 100 82 10 23 131 121 190 152 163 95 212 33 189 256 40 274 98 317 286 213 242 311 327 323 321 318 308 303 303 302 303 304 303 303 305 306 306
143 131 126 130 121 93 89 34 339 66 211 164 156 160 161 145 152 114 9 115 37 245 314 62 283 246 201 302 324 325 325 323 319 317 314 313 309 309 306 306 310 313 313 312
112 104 104 136 77 58 124 173 300 356 182 173 161 151 156 147 154 77 74 74 230 334 46 235 238 160 310 327 330 332 335 335 333 333 331 329 327 324 319 316 321 322 322 324
83 108 76 111 309 217 172 164 156 151 161 152 148 117 162 114 74 151 89 245 57 16 303 238 103 330 328 332 337 339 341 343 341 342 342 341 340 340 341 336 334 333 334 340
84 77 96 84 126 78 113 113 116 120 144 145 123 92 114 6 88 53 90 24 266 211 242 271 332 327 331 336 340 341 342 343 344 345 346 349 351 353 356 357 353 351 354 360
64 65 85 110 82 44 106 121 118 142 158 147 129 111 64 287 131 78 208 129 228 254 240 317 324 330 335 337 340 342 343 345 345 349 352 354 358 0 4 8 9 11 10 13
52 48 86 96 111 121 127 135 148 159 169 165 125 91 194 114 53 305 191 205 222 308 318 327 333 330 333 336 339 344 346 350 353 356 360 2 4 6 7 15 16 15 16 19
Wind_Speed_850mb
61 45 44 43 34 28 19 15 2 18 28 4 3 6 12 11 11 9 4 7 6 14 11 9 7 10 2 6 10 9 5 6 6 12 2 4 5 4 3 7 10 5 5 13
69 58 50 49 41 37 28 12 10 20 34 6 5 7 4 12 9 9 11 11 5 5 11 0 7 4 1 5 6 9 8 3 5 16 9 5 5 3 7 7 3 9 7 13
75 68 60 52 46 42 39 16 2 10 25 9 10 8 7 6 10 5 6 7 9 7 3 6 5 6 3 1 3 7 5 4 12 11 6 3 6 4 6 7 5 3 12 11
81 76 66 59 56 52 45 18 9 15 6 9 8 8 9 10 10 7 11 1 10 11 7 4 7 4 2 3 4 5 8 7 6 7 12 7 13 10 12 12 10 11 19 16
89 82 73 67 60 54 55 20 14 13 8 9 13 12 10 17 7 13 8 8 12 11 13 14 14 12 6 10 6 5 3 4 4 8 11 15 30 11 19 26 15 20 31 47
95 87 76 71 68 71 31 41 19 10 10 9 10 10 12 15 19 11 7 12 9 8 13 18 4 18 8 7 13 10 8 9 6 10 10 11 20 18 32 9 11 15 16 36
101 94 80 74 79 75 46 45 26 12 6 5 9 9 7 13 12 12 9 15 11 6 12 19 9 5 5 7 20 19 10 10 5 6 6 6 10 6 6 18 21 21 13 17
107 99 89 81 80 71 69 35 30 15 3 7 5 15 9 16 16 6 11 9 8 26 11 7 10 8 11 8 3 9 8 8 2 6 8 16 27 12 14 14 28 15 23 24
117 105 93 89 79 69 63 53 33 13 19 13 13 12 13 8 6 7 7 16 25 16 8 6 7 8 6 9 14 7 12 12 12 5 9 16 4 6 12 8 24 24 37 27
116 106 94 87 77 70 60 59 51 23 8 16 28 8 13 18 11 6 4 17 12 17 4 5 7 9 4 6 10 7 8 3 29 25 21 17 16 14 19 9 12 8 6 19
119 106 90 87 78 72 58 52 48 36 10 29 22 19 23 20 19 9 18 10 2 5 5 7 7 7 11 2 7 12 15 14 8 5 3 26 16 4 16 17 12 22 41 46
122 106 91 90 83 72 60 51 49 44 13 13 24 26 16 18 12 30 37 7 16 20 6 1 6 4 0 6 7 5 5 15 10 18 17 11 13 31 24 35 57 54 55 49
117 104 93 89 82 68 63 56 54 42 18 10 16 16 24 24 21 19 14 17 18 19 16 18 5 9 8 7 12 4 9 12 7 6 23 27 52 63 51 47 54 46 35 35
115 98 93 84 79 71 55 51 50 37 18 9 7 15 20 26 27 27 38 37 26 26 19 10 5 5 22 8 10 12 12 15 9 21 36 39 54 53 31 25 29 35 38 38
105 99 94 84 77 61 53 37 39 35 10 12 14 15 11 15 19 25 25 29 33 18 8 5 6 9 6 6 1 18 14 15 14 24 36 20 33 24 33 32 33 35 41 49
110 103 87 84 75 59 57 16 30 33 24 7 2 3 7 9 12 13 14 22 19 19 13 12 14 24 15 5 6 13 13 15 15 13 33 34 39 22 18 23 28 34 38 43
104 97 92 82 69 63 23 15 21 49 24 7 5 5 3 1 3 5 7 14 8 12 7 7 11 17 17 4 16 22 21 25 12 19 39 14 22 25 47 40 41 45 47 48
106 101 88 80 71 51 35 31 39 42 16 7 6 6 4 5 2 3 1 2 3 7 7 6 6 8 5 4 9 22 28 33 11 36 45 41 51 40 45 49 51 58 58 58
113 107 91 79 47 25 30 42 37 32 8 11 5 7 5 0 3 2 4 2 1 4 1 5 5 5 6 5 9 27 34 26 40 61 63 55 44 56 57 61 64 66 70 69
116 98 52 17 25 42 43 17 11 7 2 5 5 11 1 2 4 4 3 2 1 1 6 12 5 5 10 6 12 29 38 36 50 58 50 52 62 65 72 72 70 68 71 73
96 23 16 79 60 20 8 8 8 1 7 5 7 14 4 3 4 5 2 4 1 5 7 4 4 6 7 12 22 49 49 52 47 43 51 58 62 67 68 69 65 64 63 64
49 55 68 54 12 10 11 1 3 4 8 10 11 9 6 5 5 4 5 4 5 6 4 5 6 4 7 15 56 58 50 50 49 46 53 52 51 52 55 57 57 54 52 51
95 37 15 9 5 12 10 9 6 4 14 20 15 2 9 7 5 9 6 6 7 5 4 6 6 3 12 57 55 52 47 43 44 46 42 43 44 40 38 43 41 43 43 40
16 12 10 6 3 3 8 9 10 11 11 34 24 13 6 5 6 3 7 6 5 5 2 9 1 17 51 51 48 51 53 50 49 47 45 43 42 40 33 32 35 37 37 35
13 10 6 4 8 13 19 28 25 21 34 29 17 12 4 5 7 3 6 9 6 10 7 2 19 46 46 47 48 48 47 47 47 46 44 43 41 39 36 32 31 29 29 30
12 15 13 10 12 7 12 18 27 31 29 19 7 6 7 2 7 6 9 10 10 5 4 29 38 42 40 42 44 42 41 41 40 39 37 36 36 34 32 29 28 28 29 31
12 13 23 14 29 20 13 18 17 29 17 4 7 8 11 5 6 3 7 8 5 10 31 28 30 32 36 39 38 37 36 35 33 33 32 31 30 27 26 28 29 28 27 28
Wind_Direction_850mb
228 223 209 216 222 223 209 178 120 179 169 154 10 170 185 175 171 180 162 135 130 183 169 185 238 230 249 181 169 174 193 169 238 237 277 283 285 288 174 171 237 224 156 259
224 216 212 215 219 213 190 187 160 175 182 164 254 289 233 200 153 195 178 186 169 132 172 203 214 244 52 182 164 168 201 274 2 336 355 10 236 125 90 108 87 220 160 266
219 216 210 217 212 205 188 174 118 169 198 227 149 141 229 218 211 157 150 130 108 101 91 37 236 232 182 54 177 130 121 117 169 194 183 135 280 154 128 120 126 180 231 292
215 215 215 215 205 206 192 199 224 177 208 241 166 161 147 151 174 196 177 134 202 160 163 354 231 299 313 307 327 117 115 200 162 253 251 249 239 212 209 186 188 191 272 262
212 214 213 216 203 201 195 183 169 173 149 152 122 177 224 174 183 149 207 178 188 162 167 186 204 150 202 212 11 113 9 253 106 305 278 259 272 233 223 227 218 253 260 266
210 211 211 214 210 199 188 204 187 177 149 128 113 209 195 195 149 209 157 180 116 185 222 194 169 186 181 189 160 169 143 135 85 272 332 346 304 223 221 189 193 182 206 249
213 211 205 210 207 208 199 197 181 166 247 144 196 168 140 171 190 147 157 159 136 157 150 123 109 136 309 248 237 172 140 123 118 234 13 297 250 154 191 197 234 224 282 271
210 208 206 204 205 212 208 197 191 178 170 176 150 160 131 126 151 88 148 158 156 149 108 60 14 342 7 281 314 251 178 150 168 171 201 294 289 218 163 174 256 214 232 254
206 205 203 200 201 207 205 202 192 176 132 230 152 143 163 144 134 13 137 150 151 160 83 84 173 227 194 295 326 333 211 220 198 129 189 227 167 170 196 110 274 208 229 255
203 202 200 198 199 205 200 207 207 193 170 159 163 161 173 150 120 131 156 156 159 176 118 129 169 238 188 248 186 211 134 206 217 227 235 266 247 214 132 125 243 161 216 276
198 199 197 194 193 200 195 201 200 194 179 175 180 176 158 146 169 147 153 99 184 63 139 147 209 173 215 150 200 181 170 169 199 92 238 264 216 33 191 219 245 261 295 296
195 190 190 191 189 197 194 190 190 192 182 173 191 207 203 217 232 187 170 186 162 178 97 274 93 209 69 179 249 167 278 193 189 181 213 235 226 223 233 282 291 293 299 296
187 183 183 184 191 192 194 189 182 178 159 150 181 199 211 210 205 208 186 224 217 195 203 164 183 223 137 179 242 199 268 180 215 94 246 240 262 275 286 292 293 295 286 284
180 177 176 179 185 185 183 185 179 169 149 124 186 185 184 204 219 232 237 244 237 233 219 201 156 168 193 219 246 217 227 153 212 256 269 282 274 275 281 290 292 292 291 294
171 171 171 170 176 174 174 176 179 183 153 162 162 161 187 225 245 247 244 239 230 221 203 193 230 214 175 218 39 260 215 260 245 259 287 293 282 309 294 295 295 293 295 293
169 166 158 162 170 168 159 135 188 192 200 154 88 159 202 218 260 257 248 237 234 211 217 223 236 235 205 206 223 52 15 351 341 318 320 309 301 286 290 321 310 301 302 303
162 153 159 164 158 160 150 141 169 190 177 117 50 359 93 126 237 223 231 225 207 231 249 254 267 256 234 250 263 26 6 345 328 347 343 335 330 310 303 307 306 304 302 300
150 153 155 157 158 141 117 120 146 169 131 139 109 272 46 29 224 179 89 131 197 232 272 277 261 296 252 248 42 14 360 349 278 322 328 311 308 302 299 303 306 308 307 308
149 147 153 142 141 127 133 138 141 149 138 132 104 121 243 319 35 47 106 81 350 303 33 279 5 321 224 178 45 1 352 324 313 315 314 314 305 304 304 308 311 312 310 311
151 142 129 93 122 135 128 114 150 135 143 96 110 150 257 352 21 46 76 32 185 3 265 311 59 257 173 200 317 333 337 319 317 317 318 316 310 310 308 308 307 307 306 307
136 122 93 128 132 120 99 100 82 10 23 131 121 190 152 163 95 212 33 189 256 40 274 98 317 286 213 242 311 327 323 321 318 308 303 303 302 303 304 303 303 305 306 306
143 131 126 130 121 93 89 34 339 66 211 164 156 160 161 145 152 114 9 115 37 245 314 62 283 246 201 302 324 325 325 323 319 317 314 313 309 309 306 306 310 313 313 312
112 104 104 136 77 58 124 173 300 356 182 173 161 151 156 147 154 77 74 74 230 334 46 235 238 160 310 327 330 332 335 335 333 333 331 329 327 324 319 316 321 322 322 324
83 108 76 111 309 217 172 164 156 151 161 152 148 117 162 114 74 151 89 245 57 16 303 238 103 330 328 332 337 339 341 343 341 342 342 341 340 340 341 336 334 333 334 340
84 77 96 84 126 78 113 113 116 120 144 145 123 92 114 6 88 53 90 24 266 211 242 271 332 327 331 336 340 341 342 343 344 345 346 349 351 353 356 357 353 351 354 360
64 65 85 110 82 44 106 121 118 142 158 147 129 111 64 287 131 78 208 129 228 254 240 317 324 330 335 337 340 342 343 345 345 349 352 354 358 0 4 8 9 11 10 13
52 48 86 96 111 121 127 135 148 159 169 165 125 91 194 114 53 305 191 205 222 308 318 327 333 330 333 336 339 344 346 350 353 356 360 2 4 6 7 15 16 15 16 19